When you browse on this site, cookies collect data to enhance your experience and personalize the content and advertising you see.
Visit our Privacy Policy to learn more. By continuing to use the site, you agree to this use of cookies and data.
  • In Österreich
  • Länderverzeichnis
  • Für 7 Tage
  • Wassertemperatur
  • Satellitenkarten
  • Wetterkarte
  • News
  • Widgets
  • user-avatar
    Anmelden

    Stündliche Wetter Leicester

    Heute, 18 Dezember, Dienstag

    Zeit Temperatur Niederschläge Wind Luftdruck Luftfeuchtigkeit
    00:00 +7°C° 0 mm 6 m/S 754 mmHg 93%
    01:00 +7°C° 0 mm 6 m/S 753 mmHg 91%
    02:00 +8°C° 0 mm 7 m/S 753 mmHg 90%
    03:00 +8°C° 0 mm 7 m/S 752 mmHg 89%
    04:00 +7°C° 0 mm 8 m/S 752 mmHg 88%
    05:00 +7°C° 0 mm 8 m/S 751 mmHg 87%
    06:00 +8°C° 0 mm 7 m/S 750 mmHg 87%
    07:00 +7°C° 0.1 mm 8 m/S 750 mmHg 86%
    08:00 +7°C° 0.1 mm 9 m/S 749 mmHg 85%
    09:00 +7°C° 0.1 mm 10 m/S 749 mmHg 83%
    10:00 +7°C° 0.3 mm 10 m/S 748 mmHg 81%
    11:00 +7°C° 0.3 mm 10 m/S 748 mmHg 80%
    12:00 +7°C° 0 mm 8 m/S 747 mmHg 78%
    13:00 +7°C° 0.9 mm 8 m/S 746 mmHg 80%
    14:00 +6°C° 0.9 mm 9 m/S 746 mmHg 81%
    15:00 +6°C° 0.9 mm 9 m/S 745 mmHg 83%
    16:00 +6°C° 1.3 mm 8 m/S 745 mmHg 85%
    17:00 +6°C° 1.3 mm 8 m/S 744 mmHg 87%
    18:00 +6°C° 1.3 mm 7 m/S 744 mmHg 89%
    19:00 +7°C° 0.5 mm 6 m/S 744 mmHg 91%
    20:00 +6°C° 0.5 mm 5 m/S 744 mmHg 92%
    21:00 +6°C° 0.5 mm 4 m/S 744 mmHg 93%
    22:00 +6°C° 0 mm 4 m/S 744 mmHg 93%
    23:00 +6°C° 0 mm 4 m/S 744 mmHg 94%

    Morgen, 19 Dezember, Mittwoch

    Zeit Temperatur Niederschläge Wind Luftdruck Luftfeuchtigkeit
    00:00 +5°C° 0 mm 4 m/S 744 mmHg 94%
    01:00 +5°C° 0 mm 4 m/S 744 mmHg 93%
    02:00 +5°C° 0 mm 4 m/S 745 mmHg 93%
    03:00 +5°C° 0 mm 4 m/S 745 mmHg 93%
    04:00 +5°C° 0.1 mm 4 m/S 745 mmHg 93%
    05:00 +5°C° 0.1 mm 4 m/S 745 mmHg 94%
    06:00 +5°C° 0.1 mm 4 m/S 745 mmHg 94%
    07:00 +5°C° 0.1 mm 4 m/S 745 mmHg 94%
    08:00 +5°C° 0.1 mm 3 m/S 745 mmHg 94%
    09:00 +5°C° 0.1 mm 3 m/S 746 mmHg 94%
    10:00 +5°C° 0 mm 4 m/S 746 mmHg 89%
    11:00 +6°C° 0 mm 4 m/S 746 mmHg 84%
    12:00 +7°C° 0 mm 5 m/S 746 mmHg 80%
    13:00 +7°C° 0 mm 5 m/S 746 mmHg 80%
    14:00 +6°C° 0 mm 4 m/S 745 mmHg 81%
    15:00 +6°C° 0 mm 4 m/S 745 mmHg 82%
    16:00 +6°C° 0 mm 5 m/S 745 mmHg 83%
    17:00 +5°C° 0 mm 5 m/S 745 mmHg 84%
    18:00 +5°C° 0 mm 5 m/S 745 mmHg 85%
    19:00 +4°C° 0.2 mm 6 m/S 745 mmHg 86%
    20:00 +4°C° 0.2 mm 6 m/S 745 mmHg 87%
    21:00 +4°C° 0.2 mm 6 m/S 745 mmHg 88%
    22:00 +5°C° 0 mm 5 m/S 745 mmHg 88%
    23:00 +5°C° 0 mm 5 m/S 745 mmHg 88%

    übermorgen, 20 Dezember, Donnerstag

    Zeit Temperatur Niederschläge Wind Luftdruck Luftfeuchtigkeit
    00:00 +5°C° 0 mm 5 m/S 745 mmHg 89%
    01:00 +5°C° 0 mm 5 m/S 745 mmHg 88%
    02:00 +5°C° 0 mm 5 m/S 745 mmHg 88%
    03:00 +5°C° 0 mm 5 m/S 745 mmHg 87%
    04:00 +5°C° 0 mm 5 m/S 746 mmHg 87%
    05:00 +5°C° 0 mm 5 m/S 746 mmHg 87%
    06:00 +4°C° 0 mm 6 m/S 746 mmHg 87%
    07:00 +4°C° 0 mm 6 m/S 746 mmHg 87%
    08:00 +4°C° 0 mm 6 m/S 747 mmHg 86%
    09:00 +4°C° 0 mm 6 m/S 747 mmHg 86%
    10:00 +5°C° 0.1 mm 6 m/S 748 mmHg 83%
    11:00 +5°C° 0.1 mm 6 m/S 748 mmHg 79%
    12:00 +6°C° 0.1 mm 7 m/S 748 mmHg 76%
    13:00 +7°C° 0.2 mm 6 m/S 748 mmHg 76%
    14:00 +7°C° 0.2 mm 6 m/S 748 mmHg 76%
    15:00 +7°C° 0.2 mm 5 m/S 748 mmHg 76%
    16:00 +6°C° 0 mm 5 m/S 748 mmHg 79%
    17:00 +6°C° 0 mm 5 m/S 748 mmHg 82%
    18:00 +5°C° 0 mm 4 m/S 748 mmHg 84%
    19:00 +5°C° 0 mm 4 m/S 748 mmHg 86%
    20:00 +5°C° 0 mm 4 m/S 748 mmHg 87%
    21:00 +4°C° 0 mm 4 m/S 748 mmHg 89%
    22:00 +5°C° 0.2 mm 4 m/S 747 mmHg 90%
    23:00 +5°C° 0.2 mm 4 m/S 746 mmHg 92%

    21 Dezember, Freitag

    Zeit Temperatur Niederschläge Wind Luftdruck Luftfeuchtigkeit
    00:00 +5°C° 0.2 mm 4 m/S 745 mmHg 93%
    01:00 +6°C° 0.5 mm 4 m/S 744 mmHg 94%
    02:00 +6°C° 0.5 mm 4 m/S 743 mmHg 95%
    03:00 +7°C° 0.5 mm 4 m/S 741 mmHg 97%
    04:00 +8°C° 0.8 mm 6 m/S 741 mmHg 94%
    05:00 +10°C° 0.8 mm 7 m/S 740 mmHg 92%
    06:00 +11°C° 0.8 mm 9 m/S 739 mmHg 89%
    07:00 +10°C° 0.1 mm 9 m/S 740 mmHg 84%
    08:00 +8°C° 0.1 mm 9 m/S 741 mmHg 79%
    09:00 +7°C° 0.1 mm 10 m/S 741 mmHg 74%
    10:00 +7°C° 0 mm 10 m/S 742 mmHg 73%
    11:00 +7°C° 0 mm 10 m/S 743 mmHg 71%
    12:00 +7°C° 0 mm 10 m/S 744 mmHg 69%
    13:00 +7°C° 0 mm 9 m/S 744 mmHg 69%
    14:00 +7°C° 0 mm 9 m/S 745 mmHg 69%
    15:00 +7°C° 0 mm 9 m/S 745 mmHg 69%
    16:00 +7°C° 0 mm 8 m/S 745 mmHg 72%
    17:00 +7°C° 0 mm 8 m/S 746 mmHg 76%
    18:00 +6°C° 0 mm 7 m/S 746 mmHg 79%
    19:00 +6°C° 0.1 mm 7 m/S 746 mmHg 81%
    20:00 +6°C° 0.1 mm 7 m/S 746 mmHg 84%
    21:00 +6°C° 0.1 mm 7 m/S 746 mmHg 86%
    22:00 +8°C° 0.4 mm 7 m/S 746 mmHg 85%
    23:00 +7°C° 0.4 mm 8 m/S 745 mmHg 84%

    22 Dezember, Samstag

    Zeit Temperatur Niederschläge Wind Luftdruck Luftfeuchtigkeit
    00:00 +7°C° 0.4 mm 8 m/S 745 mmHg 83%
    01:00 +7°C° 0.2 mm 8 m/S 745 mmHg 82%
    02:00 +7°C° 0.2 mm 8 m/S 745 mmHg 82%
    03:00 +6°C° 0.2 mm 7 m/S 745 mmHg 82%
    04:00 +6°C° 0 mm 7 m/S 746 mmHg 83%
    05:00 +7°C° 0 mm 6 m/S 747 mmHg 83%
    06:00 +7°C° 0 mm 6 m/S 747 mmHg 83%
    07:00 +7°C° 0 mm 6 m/S 748 mmHg 83%
    08:00 +5°C° 0 mm 6 m/S 749 mmHg 83%
    09:00 +6°C° 0 mm 5 m/S 750 mmHg 82%
    10:00 +5°C° 0 mm 6 m/S 750 mmHg 79%
    11:00 +6°C° 0 mm 7 m/S 751 mmHg 75%
    12:00 +8°C° 0 mm 7 m/S 751 mmHg 72%
    13:00 +6°C° 0 mm 7 m/S 752 mmHg 72%
    14:00 +6°C° 0 mm 7 m/S 752 mmHg 71%
    15:00 +7°C° 0 mm 6 m/S 752 mmHg 71%
    16:00 +5°C° 0 mm 6 m/S 753 mmHg 73%
    17:00 +5°C° 0 mm 6 m/S 753 mmHg 75%
    18:00 +4°C° 0 mm 6 m/S 754 mmHg 77%
    19:00 +5°C° 0 mm 5 m/S 754 mmHg 79%
    20:00 +5°C° 0 mm 5 m/S 755 mmHg 80%
    21:00 +5°C° 0 mm 5 m/S 755 mmHg 82%
    22:00 +4°C° 0 mm 4 m/S 756 mmHg 83%
    23:00 +4°C° 0 mm 4 m/S 756 mmHg 84%

    23 Dezember, Sonntag

    Zeit Temperatur Niederschläge Wind Luftdruck Luftfeuchtigkeit
    00:00 +4°C° 0 mm 4 m/S 757 mmHg 85%
    01:00 +4°C° 0 mm 4 m/S 757 mmHg 86%
    02:00 +3°C° 0 mm 3 m/S 757 mmHg 88%
    03:00 +3°C° 0 mm 3 m/S 757 mmHg 89%
    04:00 +3°C° 0 mm 3 m/S 757 mmHg 89%
    05:00 +3°C° 0 mm 3 m/S 758 mmHg 90%
    06:00 +4°C° 0 mm 2 m/S 758 mmHg 91%
    07:00 +4°C° 0 mm 2 m/S 758 mmHg 90%
    08:00 +4°C° 0 mm 2 m/S 758 mmHg 90%
    09:00 +4°C° 0 mm 2 m/S 759 mmHg 90%
    10:00 +5°C° 0 mm 2 m/S 759 mmHg 88%
    11:00 +6°C° 0 mm 2 m/S 759 mmHg 86%
    12:00 +6°C° 0 mm 2 m/S 759 mmHg 84%
    13:00 +7°C° 0 mm 1 m/S 759 mmHg 85%
    14:00 +7°C° 0 mm 1 m/S 759 mmHg 86%
    15:00 +7°C° 0 mm 1 m/S 759 mmHg 87%
    16:00 +7°C° 0.1 mm 1 m/S 759 mmHg 88%
    17:00 +6°C° 0.1 mm 1 m/S 759 mmHg 88%
    18:00 +5°C° 0.1 mm 0 m/S 759 mmHg 89%
    19:00 +6°C° 0.2 mm 1 m/S 759 mmHg 89%
    20:00 +6°C° 0.2 mm 1 m/S 759 mmHg 89%
    21:00 +6°C° 0.2 mm 1 m/S 760 mmHg 89%
    22:00 +6°C° 0.2 mm 1 m/S 760 mmHg 89%
    23:00 +6°C° 0.2 mm 1 m/S 760 mmHg 90%
    Mehr zeigen